GW0490 Weather Reports


time (UTC)temp
F
wind
direction
speed
knots
gust
knots
rain 1hr
in
rain 24hr
in
rain mn
in
humidity
%
barometer
mb
20260507031124 52 10 0.9 1.7 0.00 0.41 0.41 99 1001.5
20260507030621 53 27 0.0 1.7 0.00 0.41 0.41 99 1001.4
20260507030119 53 29 0.9 1.7 0.00 0.41 0.41 99 1001.2
20260507025616 53 47 0.9 1.7 0.00 0.41 0.41 99 1001.1
20260507025113 53 25 0.0 0.9 0.00 0.41 0.41 99 1001.1
20260507024611 54 33 0.9 1.7 0.00 0.41 0.41 99 1001.2
20260507024108 54 54 1.7 1.7 0.00 0.41 0.41 99 1001.1
20260507023603 54 13 0.9 2.6 0.00 0.41 0.41 99 1001.2
20260507023101 55 40 0.0 0.9 0.00 0.41 0.41 99 1001.0
20260507022558 55 46 0.0 0.9 0.00 0.41 0.41 99 1001.0
20260507022053 55 35 0.0 0.0 0.00 0.41 0.41 99 1000.9
20260507021549 55 35 0.0 0.9 0.07 0.41 0.41 99 1000.9
20260507021045 56 41 0.9 0.9 0.07 0.41 0.41 99 1000.8
20260507020544 56 35 0.0 0.0 0.00 0.40 0.40 99 1000.7
20260507020040 56 35 0.0 0.9 0.00 0.40 0.40 99 1000.6
20260507015538 56 35 0.0 0.0 0.00 0.40 0.40 99 1000.8
20260507015035 56 36 0.0 0.9 0.00 0.40 0.40 99 1000.7
20260507014532 57 35 0.0 0.9 0.00 0.40 0.40 99 1000.9
20260507014027 57 35 0.0 0.0 0.00 0.40 0.40 99 1000.8
20260507013524 57 20 0.9 1.7 0.00 0.40 0.40 99 1001.0
20260507013022 58 12 0.9 1.7 0.00 0.40 0.40 99 1000.6
20260507012519 58 35 0.9 0.9 0.05 0.40 0.40 99 1000.7
20260507012015 58 33 0.0 0.0 0.05 0.40 0.40 99 1000.8
20260507011513 58 33 0.0 0.9 0.00 0.39 0.39 99 1000.8
20260507011008 58 34 0.0 0.0 0.00 0.39 0.39 99 1000.6
20260507010503 58 34 0.0 0.9 0.00 0.39 0.39 99 1000.4
20260507010000 58 34 0.0 0.0 0.00 0.39 0.39 99 1000.7
20260507005457 58 29 0.0 0.9 0.00 0.39 0.39 99 1000.3
20260507004953 59 42 0.0 0.9 0.00 0.39 0.39 99 1000.6
20260507004450 59 42 0.0 0.9 0.00 0.39 0.39 99 1000.6
20260507003948 59 42 0.9 0.9 0.00 0.39 0.39 99 1000.2
20260507003443 59 42 0.0 0.9 0.00 0.39 0.39 99 1000.4
20260507002938 59 31 0.0 0.9 0.00 0.39 0.39 99 1000.4
20260507002435 59 31 0.0 0.0 0.00 0.39 0.39 99 1000.3
20260507001932 59 31 0.0 0.0 0.00 0.39 0.39 99 1000.4
20260507001428 59 26 0.9 0.9 0.00 0.39 0.39 99 1000.3
20260507000926 59 35 0.0 0.9 0.00 0.39 0.39 99 1000.3
20260507000421 59 345 0.9 1.7 0.00 0.39 0.39 99 1000.3
20260506235917 59 24 0.0 0.9 0.00 0.39 0.39 99 1000.0
20260506235415 59 12 2.6 4.3 0.00 0.39 0.39 99 1000.0
20260506234910 59 0 1.7 1.7 0.00 0.39 0.39 99 1000.1
20260506234408 59 14 1.7 1.7 0.00 0.39 0.39 99 999.9
20260506233906 59 29 0.9 1.7 0.00 0.39 0.39 99 999.8
20260506233401 59 236 2.6 4.3 0.00 0.39 0.39 99 999.7
20260506232858 59 342 1.7 5.2 0.00 0.39 0.39 99 999.6
20260506232354 59 9 1.7 5.2 0.00 0.39 0.39 99 999.6
20260506231850 59 14 0.9 2.6 0.00 0.39 0.39 99 999.8
20260506231348 59 54 0.9 1.7 0.00 0.39 0.39 99 999.8
20260506230846 59 209 1.7 4.3 0.00 0.39 0.39 99 999.6
20260506230342 59 16 0.9 2.6 0.00 0.39 0.39 99 999.9
20260506225838 59 34 0.9 0.9 0.00 0.39 0.39 99 999.6
20260506225336 59 60 0.9 1.7 0.00 0.39 0.39 99 999.9
20260506224833 59 17 0.9 2.6 0.07 0.39 0.39 99 999.6
20260506224330 59 21 0.0 5.2 0.00 0.38 0.38 99 999.8
20260506223826 59 8 1.7 2.6 0.00 0.38 0.38 99 999.9
20260506223321 59 57 0.9 1.7 0.05 0.38 0.38 99 1000.0
20260506222819 59 35 0.0 1.7 0.12 0.38 0.38 99 999.9
20260506222313 60 325 1.7 2.6 0.07 0.37 0.37 99 1000.2
20260506221807 60 38 0.0 0.9 0.00 0.36 0.36 99 1000.2
20260506221304 60 31 0.0 0.9 0.00 0.36 0.36 99 1000.1
20260506220801 60 39 0.0 0.9 0.05 0.36 0.36 99 1000.4
20260506220256 60 38 0.0 0.0 0.05 0.36 0.36 99 1000.4
20260506215753 60 38 0.0 0.0 0.07 0.35 0.35 99 1000.7
20260506215249 60 38 0.0 0.0 0.19 0.35 0.35 99 1000.7
20260506214745 60 38 0.0 0.0 0.19 0.34 0.34 99 1000.8
20260506214242 60 38 0.0 0.9 0.12 0.32 0.32 99 1000.7
20260506213741 60 50 0.0 0.0 0.12 0.31 0.31 99 1000.8
20260506213237 60 50 0.0 0.0 0.19 0.30 0.30 99 1001.0
20260506212735 60 50 0.0 0.9 0.28 0.29 0.29 99 1001.0
20260506212230 60 34 0.9 0.9 0.24 0.27 0.27 99 1000.9
20260506211725 60 11 1.7 2.6 0.07 0.24 0.24 99 1001.1
20260506211222 60 39 0.0 0.9 0.00 0.23 0.23 99 1001.2
20260506210719 60 306 0.9 2.6 0.00 0.23 0.23 99 1001.1
20260506210216 60 39 0.0 1.7 0.00 0.23 0.23 99 1001.2
20260506205713 60 35 0.0 0.9 0.00 0.23 0.23 99 1001.2
20260506205208 60 42 0.0 0.9 0.00 0.23 0.23 99 1001.2
20260506204706 60 42 0.9 1.7 0.05 0.23 0.23 99 1001.4
20260506204203 60 44 0.9 4.3 0.05 0.23 0.23 99 1001.2
20260506203701 60 32 0.9 1.7 0.00 0.22 0.22 99 1001.4
20260506203158 61 17 0.9 1.7 0.00 0.22 0.22 99 1001.5
20260506202656 60 45 0.0 1.7 0.00 0.22 0.22 99 1001.3
20260506202151 61 348 0.9 0.9 0.07 0.22 0.22 99 1001.3
20260506201649 61 36 0.0 1.7 0.07 0.22 0.22 99 1001.3
20260506201145 61 16 1.7 2.6 0.07 0.21 0.21 99 1001.4
20260506200642 61 27 1.7 2.6 0.05 0.20 0.20 99 1001.5
20260506200138 61 35 0.9 0.9 0.12 0.20 0.20 99 1001.5
20260506195635 61 26 0.9 1.7 0.07 0.19 0.19 99 1001.3
20260506195131 61 38 0.9 0.9 0.00 0.18 0.18 99 1001.5
20260506194629 61 27 0.9 0.9 0.05 0.18 0.18 99 1001.6
20260506194125 61 42 0.0 0.0 0.05 0.18 0.18 99 1001.5
20260506193623 61 43 0.0 0.9 0.07 0.17 0.17 99 1001.6
20260506193120 61 26 0.0 1.7 0.07 0.17 0.17 99 1001.7
20260506192617 61 27 0.9 1.7 0.00 0.16 0.16 99 1001.7
20260506192112 61 22 0.9 1.7 0.05 0.16 0.16 99 1001.8
20260506191609 61 28 0.0 0.9 0.12 0.16 0.16 99 1002.0
20260506191105 60 25 0.9 0.9 0.12 0.15 0.15 99 1002.0
20260506190603 60 56 0.0 0.9 0.05 0.14 0.14 99 1002.0
20260506190100 60 56 0.0 0.9 0.07 0.13 0.13 99 1001.9
20260506185557 60 56 0.0 0.9 0.07 0.13 0.13 99 1002.0
20260506185053 60 65 0.0 0.9 0.05 0.12 0.12 99 1001.9
20260506184551 60 57 0.0 0.0 0.05 0.12 0.12 99 1001.9
20260506184048 60 57 0.0 0.0 0.07 0.11 0.11 99 1002.0
20260506183544 60 87 0.0 0.0 0.07 0.11 0.11 99 1002.2
20260506183040 60 90 0.0 0.0 0.05 0.10 0.10 99 1002.6
20260506182538 60 87 0.0 0.0 0.12 0.10 0.10 99 1002.4
20260506182035 60 57 0.9 0.9 0.14 0.09 0.09 99 1002.5
20260506181533 60 52 0.9 0.9 0.07 0.08 0.08 99 1002.7
20260506181029 60 72 0.0 0.9 0.05 0.07 0.07 99 1002.9
20260506180526 60 17 0.9 0.9 0.12 0.07 0.07 99 1002.9
20260506180023 60 17 0.9 1.7 0.12 0.06 0.06 99 1002.6
20260506175519 60 17 0.9 0.9 0.05 0.05 0.05 99 1002.8
20260506175016 60 17 0.0 0.0 0.07 0.04 0.04 99 1002.6
20260506174514 61 17 0.0 1.7 0.07 0.04 0.04 99 1002.8
20260506174010 61 17 0.0 0.9 0.05 0.03 0.03 99 1002.8
20260506173508 61 17 0.0 0.9 0.05 0.03 0.03 99 1002.5
20260506173005 61 17 0.0 0.0 0.00 0.02 0.02 97 1002.5
20260506172502 62 17 0.0 0.0 0.07 0.02 0.02 96 1002.6
20260506171958 62 17 0.9 0.9 0.05 0.01 0.01 94 1002.5
20260506171455 63 17 0.0 0.9 0.05 0.01 0.01 91 1002.6
20260506170953 64 17 0.0 0.9 0.00 0.00 0.00 88 1002.7
20260506170449 64 17 0.0 0.9 0.00 0.00 0.00 86 1002.6
20260506165942 64 17 0.9 0.9 0.00 0.00 0.00 85 1002.8
20260506165440 64 17 0.0 0.9 0.00 0.00 0.00 84 1002.9
20260506164936 64 17 0.0 0.9 0.00 0.00 0.00 84 1003.1
20260506164433 64 17 0.0 0.9 0.00 0.00 0.00 84 1002.9
20260506163925 64 17 0.9 0.9 0.00 0.00 0.00 83 1003.0
20260506163419 64 17 0.0 0.9 0.00 0.00 0.00 84 1003.2
20260506162914 64 17 0.0 0.9 0.00 0.00 0.00 84 1003.4
20260506162412 64 17 0.0 0.0 0.00 0.00 0.00 84 1003.8
20260506161904 64 16 0.0 0.9 0.00 0.00 0.00 83 1003.9
20260506161402 64 16 0.0 1.7 0.00 0.00 0.00 84 1004.0
20260506160859 64 12 0.0 1.7 0.00 0.00 0.00 84 1004.2
20260506160356 64 25 0.0 0.9 0.00 0.00 0.00 85 1004.1
20260506155854 64 20 0.0 1.7 0.00 0.00 0.00 85 1004.6
20260506155350 64 22 0.0 0.0 0.00 0.00 0.00 84 1004.3
20260506153508 64 356 1.7 1.7 0.00 0.00 0.00 81 1004.4
20260506153005 64 23 0.0 0.9 0.00 0.00 0.00 82 1004.4
20260506152502 63 23 0.0 0.9 0.00 0.00 0.00 82 1004.6
20260506152000 63 20 0.9 0.9 0.00 0.00 0.00 83 1004.5
20260506151458 63 27 0.9 0.9 0.00 0.00 0.00 82 1004.5
20260506150955 63 27 0.0 0.0 0.00 0.00 0.00 83 1004.5
20260506150450 63 27 0.0 0.9 0.00 0.00 0.00 83 1004.7
20260506145948 63 27 0.0 0.0 0.00 0.00 0.00 82 1004.7
20260506145444 63 27 0.0 0.9 0.00 0.00 0.00 82 1004.5
20260506144942 63 27 0.0 0.9 0.00 0.00 0.00 82 1004.6
20260506144438 64 5 0.9 1.7 0.00 0.00 0.00 81 1004.4
20260506143937 64 27 0.9 2.6 0.00 0.00 0.00 82 1004.4
20260506143433 64 352 2.6 2.6 0.00 0.00 0.00 80 1004.4
20260506142932 64 35 0.0 0.9 0.00 0.00 0.00 81 1004.5
20260506142429 64 325 2.6 2.6 0.00 0.00 0.00 80 1004.4
20260506141927 64 356 0.0 0.9 0.00 0.00 0.00 81 1004.3
20260506141425 64 180 2.6 2.6 0.00 0.00 0.00 80 1004.2
20260506140923 64 12 1.7 2.6 0.00 0.00 0.00 80 1004.4
20260506140420 64 3 0.9 2.6 0.00 0.00 0.00 80 1004.6
20260506135917 64 26 0.9 0.9 0.00 0.00 0.00 80 1004.6
20260506135414 64 26 0.9 1.7 0.00 0.00 0.00 80 1004.6
20260506134910 64 6 0.9 1.7 0.00 0.00 0.00 80 1004.6
20260506134406 64 43 0.0 0.9 0.00 0.00 0.00 82 1004.7
20260506133903 63 43 0.0 0.9 0.00 0.00 0.00 84 1004.7
20260506133400 62 43 0.0 0.9 0.00 0.00 0.00 84 1004.8
20260506132856 62 43 0.0 0.9 0.00 0.00 0.00 85 1004.7
20260506132354 62 43 0.0 0.9 0.00 0.00 0.00 85 1004.7
20260506131852 62 43 1.7 1.7 0.00 0.00 0.00 85 1004.7
20260506131348 62 43 0.0 0.9 0.00 0.00 0.00 85 1004.6
20260506130845 62 43 0.0 0.9 0.00 0.00 0.00 85 1005.0
20260506130341 62 42 0.0 0.9 0.00 0.00 0.00 85 1004.8
20260506125839 62 42 0.0 0.9 0.00 0.00 0.00 86 1004.8
20260506125338 61 43 0.0 0.9 0.00 0.00 0.00 86 1004.5
20260506124835 61 42 0.9 0.9 0.00 0.00 0.00 86 1004.7
20260506124332 61 42 0.9 0.9 0.00 0.00 0.00 87 1005.1
20260506123830 61 43 0.9 0.9 0.00 0.00 0.00 87 1004.8
20260506123328 61 43 0.9 0.9 0.00 0.00 0.00 87 1004.8
20260506122825 61 30 0.0 0.9 0.00 0.00 0.00 88 1005.0
20260506122322 61 45 0.0 0.0 0.00 0.00 0.00 89 1005.1
20260506121820 61 45 0.9 1.7 0.00 0.00 0.00 89 1005.1
20260506121317 61 35 0.0 1.7 0.00 0.00 0.00 89 1005.2
20260506120814 60 52 0.0 0.9 0.00 0.00 0.00 90 1005.3
20260506120312 61 59 0.9 1.7 0.00 0.00 0.00 89 1005.3
20260506115809 60 51 0.0 0.9 0.00 0.00 0.00 91 1005.2
20260506115307 59 60 0.9 2.6 0.00 0.00 0.00 92 1005.1
20260506114805 59 26 0.9 0.9 0.00 0.00 0.00 92 1005.4
20260506114302 59 26 0.0 1.7 0.00 0.00 0.00 94 1005.3
20260506113801 59 26 0.0 0.0 0.00 0.00 0.00 95 1005.4
20260506113258 58 26 0.9 0.9 0.00 0.00 0.00 95 1005.4
20260506112754 58 27 0.0 0.0 0.00 0.00 0.00 96 1005.2
20260506112252 58 27 0.0 0.9 0.00 0.00 0.00 96 1005.4
20260506111749 57 27 0.0 0.9 0.00 0.00 0.00 97 1005.2
20260506111247 57 26 0.0 0.9 0.00 0.00 0.00 98 1005.5
20260506110743 57 26 0.0 0.9 0.00 0.00 0.00 98 1005.5
20260506110241 57 26 0.0 0.9 0.00 0.00 0.00 98 1005.5
20260506105737 57 26 0.0 0.9 0.00 0.00 0.00 97 1005.7
20260506105235 57 27 0.9 0.9 0.00 0.00 0.00 98 1005.2
20260506104732 57 27 0.0 0.0 0.00 0.00 0.00 98 1005.3
20260506104230 56 28 0.9 0.9 0.00 0.00 0.00 99 1005.4
20260506103727 56 28 0.9 0.9 0.00 0.00 0.00 99 1005.5
20260506103224 55 28 0.0 0.9 0.00 0.00 0.00 99 1005.3
20260506102722 55 28 0.0 0.9 0.00 0.00 0.00 99 1005.4
20260506102220 54 28 0.0 0.9 0.00 0.00 0.00 99 1005.3
20260506101716 54 27 0.0 0.0 0.00 0.00 0.00 99 1005.1
20260506101213 54 27 0.0 0.0 0.00 0.00 0.00 99 1005.2
20260506100711 54 27 0.0 0.0 0.00 0.00 0.00 99 1005.2
20260506100209 54 27 0.0 0.9 0.00 0.00 0.00 99 1005.0
20260506095707 54 27 0.0 0.0 0.00 0.00 0.00 99 1005.1
20260506095203 54 27 0.0 0.0 0.00 0.00 0.00 99 1005.0
20260506094701 54 27 0.0 0.0 0.00 0.00 0.00 99 1004.8
20260506094158 54 27 0.0 0.0 0.00 0.00 0.00 99 1004.8
20260506093657 54 27 0.0 0.9 0.00 0.00 0.00 99 1005.0
20260506093153 54 27 0.0 0.0 0.00 0.00 0.00 99 1005.0
20260506092651 53 27 0.0 0.0 0.00 0.00 0.00 99 1005.0
20260506092148 53 27 0.0 0.0 0.00 0.00 0.00 99 1005.0
20260506091646 53 27 0.0 0.0 0.00 0.00 0.00 99 1005.0
20260506091143 53 27 0.0 0.0 0.00 0.00 0.00 99 1005.0
20260506090641 54 27 0.0 0.0 0.00 0.00 0.00 99 1004.8
20260506090138 54 27 0.0 0.0 0.00 0.00 0.00 99 1004.8
20260506085634 54 27 0.0 0.0 0.00 0.00 0.00 99 1004.7
20260506085131 54 27 0.0 0.0 0.00 0.00 0.00 99 1004.8
20260506084627 55 27 0.0 0.0 0.00 0.00 0.00 99 1004.7
20260506084124 55 27 0.0 0.0 0.00 0.00 0.00 99 1004.9
20260506083621 55 27 0.0 0.0 0.00 0.00 0.00 99 1004.5
20260506083119 55 27 0.0 0.0 0.00 0.00 0.00 99 1005.0
20260506082615 55 27 0.0 0.0 0.00 0.00 0.00 99 1004.8
20260506082111 55 27 0.0 0.0 0.00 0.00 0.00 99 1004.8
20260506081609 56 27 0.0 0.0 0.00 0.00 0.00 99 1004.9
20260506081107 56 27 0.0 0.9 0.00 0.00 0.00 99 1004.8
20260506080604 56 27 0.0 0.0 0.00 0.00 0.00 99 1004.8
20260506073044 57 27 0.0 0.0 0.00 0.00 0.00 98 1004.3
20260506072541 57 26 0.9 0.9 0.00 0.00 0.00 98 1004.4
20260506072039 57 29 0.0 0.9 0.00 0.00 0.00 99 1004.3
20260506071537 57 29 0.0 0.9 0.00 0.00 0.00 99 1004.4
20260506071034 57 29 0.0 0.9 0.00 0.00 0.00 98 1004.4
20260506070531 57 29 0.9 0.9 0.00 0.00 0.00 98 1004.2
20260506062509 56 29 0.0 0.9 0.00 0.00 0.00 98 1003.9
20260506062005 55 29 0.9 0.9 0.00 0.00 0.00 99 1004.2
20260506061501 55 29 0.0 0.0 0.00 0.00 0.00 99 1004.0
20260506060959 55 29 0.0 0.9 0.00 0.00 0.00 99 1004.3
20260506060457 55 29 0.0 0.9 0.00 0.00 0.00 99 1004.2
20260506050926 57 29 0.0 0.0 0.00 0.00 0.00 96 1004.2
20260506050424 58 29 0.0 0.0 0.00 0.00 0.00 96 1004.1
20260506044914 58 29 0.0 0.0 0.00 0.00 0.00 96 1004.2
20260506044412 58 29 0.0 0.9 0.00 0.00 0.00 96 1004.2
20260506043909 58 29 0.0 0.9 0.00 0.00 0.00 95 1004.2
20260506043406 58 29 0.9 0.9 0.00 0.00 0.00 96 1004.2
20260506042904 58 29 0.0 0.0 0.00 0.00 0.00 96 1004.4
20260506042403 58 29 0.0 0.0 0.00 0.00 0.00 96 1004.4
20260506041901 58 29 0.0 0.9 0.00 0.00 0.00 96 1004.6
20260506041358 58 29 0.0 0.0 0.00 0.00 0.00 96 1004.2
20260506040855 58 29 0.0 0.0 0.00 0.00 0.00 95 1004.3
20260506040353 58 29 0.0 0.0 0.00 0.00 0.00 96 1004.3
20260506035848 58 29 0.0 0.0 0.00 0.02 0.02 96 1004.2
20260506035346 58 29 0.0 0.0 0.00 0.02 0.02 96 1004.1
20260506034843 58 29 0.0 0.0 0.00 0.02 0.02 96 1004.5
20260506034340 58 29 0.0 0.0 0.00 0.02 0.02 97 1004.6
20260506033837 57 29 0.0 0.0 0.00 0.02 0.02 97 1004.5
20260506033334 57 29 0.0 0.0 0.00 0.02 0.02 97 1004.4
20260506032831 57 29 0.0 0.0 0.00 0.02 0.02 97 1004.3
20260506032328 57 29 0.0 0.0 0.00 0.02 0.02 97 1004.3
20260506031825 57 29 0.0 0.0 0.00 0.02 0.02 97 1004.1
20260506031322 57 29 0.0 0.0 0.00 0.02 0.02 97 1004.1